When you browse on this site, cookies collect data to enhance your experience and personalize the content and advertising you see.
Visit our Privacy Policy to learn more. By continuing to use the site, you agree to this use of cookies and data.

Stündliche Wetter Aalen

Heute, 8 August, Samstag

Zeit Temperatur Niederschläge Wind Luftdruck Luftfeuchtigkeit
00:00 +18°C° 0 mm 0 m/S 724 mmHg 78%
01:00 +20°C° 0 mm 1 m/S 724 mmHg 77%
02:00 +20°C° 0 mm 1 m/S 724 mmHg 78%
03:00 +17°C° 0 mm 0 m/S 724 mmHg 80%
04:00 +17°C° 0 mm 0 m/S 724 mmHg 82%
05:00 +18°C° 0 mm 0 m/S 724 mmHg 80%
06:00 +19°C° 0 mm 0 m/S 725 mmHg 78%
07:00 +20°C° 0 mm 0 m/S 725 mmHg 75%
08:00 +24°C° 0 mm 1 m/S 725 mmHg 70%
09:00 +26°C° 0 mm 1 m/S 725 mmHg 65%
10:00 +28°C° 0 mm 1 m/S 725 mmHg 60%
11:00 +28°C° 0 mm 1 m/S 725 mmHg 57%
12:00 +29°C° 0 mm 2 m/S 725 mmHg 53%
13:00 +30°C° 0 mm 2 m/S 725 mmHg 49%
14:00 +30°C° 0 mm 2 m/S 725 mmHg 49%
15:00 +30°C° 0 mm 2 m/S 725 mmHg 49%
16:00 +30°C° 0 mm 2 m/S 725 mmHg 49%
17:00 +29°C° 0 mm 1 m/S 724 mmHg 56%
18:00 +27°C° 0 mm 1 m/S 724 mmHg 64%
19:00 +26°C° 0 mm 1 m/S 724 mmHg 71%
20:00 +24°C° 0 mm 1 m/S 724 mmHg 72%
21:00 +21°C° 0 mm 0 m/S 724 mmHg 74%
22:00 +20°C° 0 mm 0 m/S 724 mmHg 76%
23:00 +19°C° 0 mm 0 m/S 724 mmHg 76%

Morgen, 9 August, Sonntag

Zeit Temperatur Niederschläge Wind Luftdruck Luftfeuchtigkeit
00:00 +19°C° 0 mm 0 m/S 724 mmHg 75%
01:00 +19°C° 0 mm 0 m/S 724 mmHg 75%
02:00 +18°C° 0 mm 0 m/S 724 mmHg 75%
03:00 +18°C° 0 mm 0 m/S 723 mmHg 75%
04:00 +18°C° 0 mm 0 m/S 723 mmHg 75%
05:00 +19°C° 0 mm 0 m/S 723 mmHg 74%
06:00 +20°C° 0 mm 0 m/S 724 mmHg 73%
07:00 +21°C° 0 mm 0 m/S 724 mmHg 72%
08:00 +24°C° 0 mm 1 m/S 724 mmHg 67%
09:00 +26°C° 0 mm 1 m/S 724 mmHg 62%
10:00 +28°C° 0 mm 1 m/S 724 mmHg 58%
11:00 +29°C° 0 mm 2 m/S 724 mmHg 55%
12:00 +30°C° 0 mm 2 m/S 724 mmHg 52%
13:00 +30°C° 0 mm 2 m/S 724 mmHg 49%
14:00 +30°C° 0 mm 2 m/S 723 mmHg 50%
15:00 +30°C° 0 mm 2 m/S 723 mmHg 50%
16:00 +30°C° 0 mm 2 m/S 723 mmHg 50%
17:00 +29°C° 0 mm 2 m/S 723 mmHg 57%
18:00 +27°C° 0 mm 2 m/S 722 mmHg 64%
19:00 +25°C° 0 mm 2 m/S 722 mmHg 72%
20:00 +24°C° 0 mm 2 m/S 722 mmHg 73%
21:00 +23°C° 0 mm 1 m/S 722 mmHg 74%
22:00 +21°C° 0 mm 1 m/S 722 mmHg 74%
23:00 +21°C° 0 mm 1 m/S 722 mmHg 76%

übermorgen, 10 August, Montag

Zeit Temperatur Niederschläge Wind Luftdruck Luftfeuchtigkeit
00:00 +21°C° 0 mm 1 m/S 722 mmHg 77%
01:00 +20°C° 0 mm 1 m/S 721 mmHg 79%
02:00 +20°C° 0 mm 1 m/S 721 mmHg 80%
03:00 +19°C° 0 mm 1 m/S 721 mmHg 82%
04:00 +19°C° 0 mm 1 m/S 721 mmHg 83%
05:00 +20°C° 0 mm 1 m/S 721 mmHg 82%
06:00 +21°C° 0 mm 1 m/S 721 mmHg 81%
07:00 +22°C° 0 mm 1 m/S 721 mmHg 79%
08:00 +23°C° 0 mm 2 m/S 721 mmHg 74%
09:00 +25°C° 0 mm 2 m/S 722 mmHg 68%
10:00 +27°C° 0 mm 2 m/S 722 mmHg 63%
11:00 +28°C° 0 mm 3 m/S 722 mmHg 60%
12:00 +29°C° 0 mm 3 m/S 721 mmHg 57%
13:00 +29°C° 0 mm 3 m/S 721 mmHg 54%
14:00 +30°C° 0 mm 3 m/S 721 mmHg 53%
15:00 +30°C° 0 mm 3 m/S 721 mmHg 53%
16:00 +30°C° 0 mm 2 m/S 721 mmHg 53%
17:00 +28°C° 0 mm 2 m/S 721 mmHg 60%
18:00 +27°C° 0 mm 1 m/S 721 mmHg 67%
19:00 +25°C° 0 mm 1 m/S 721 mmHg 73%
20:00 +24°C° 0 mm 1 m/S 721 mmHg 76%
21:00 +23°C° 0 mm 1 m/S 721 mmHg 78%
22:00 +20°C° 0 mm 0 m/S 721 mmHg 81%
23:00 +19°C° 0 mm 0 m/S 721 mmHg 82%

11 August, Dienstag

Zeit Temperatur Niederschläge Wind Luftdruck Luftfeuchtigkeit
00:00 +21°C° 0 mm 1 m/S 721 mmHg 83%
01:00 +21°C° 0 mm 1 m/S 721 mmHg 84%
02:00 +20°C° 0 mm 1 m/S 721 mmHg 86%
03:00 +20°C° 0 mm 1 m/S 721 mmHg 87%
04:00 +19°C° 0 mm 1 m/S 721 mmHg 89%
05:00 +20°C° 0 mm 1 m/S 721 mmHg 87%
06:00 +21°C° 0 mm 1 m/S 721 mmHg 85%
07:00 +22°C° 0 mm 1 m/S 721 mmHg 84%
08:00 +24°C° 0 mm 2 m/S 721 mmHg 78%
09:00 +25°C° 0 mm 2 m/S 721 mmHg 72%
10:00 +27°C° 0 mm 2 m/S 722 mmHg 66%
11:00 +28°C° 0 mm 2 m/S 722 mmHg 63%
12:00 +29°C° 0 mm 3 m/S 721 mmHg 59%
13:00 +30°C° 0 mm 3 m/S 721 mmHg 56%
14:00 +30°C° 0.1 mm 3 m/S 721 mmHg 55%
15:00 +30°C° 0.1 mm 2 m/S 721 mmHg 55%
16:00 +30°C° 0.1 mm 2 m/S 721 mmHg 55%
17:00 +28°C° 0.1 mm 2 m/S 721 mmHg 62%
18:00 +27°C° 0.1 mm 1 m/S 721 mmHg 68%
19:00 +26°C° 0.1 mm 1 m/S 721 mmHg 74%
20:00 +25°C° 0.1 mm 1 m/S 721 mmHg 77%
21:00 +23°C° 0.1 mm 1 m/S 721 mmHg 80%
22:00 +22°C° 0.1 mm 1 m/S 721 mmHg 82%
23:00 +22°C° 0 mm 1 m/S 721 mmHg 85%

12 August, Mittwoch

Zeit Temperatur Niederschläge Wind Luftdruck Luftfeuchtigkeit
00:00 +21°C° 0 mm 1 m/S 721 mmHg 88%
01:00 +20°C° 0 mm 2 m/S 721 mmHg 91%
02:00 +19°C° 0 mm 2 m/S 721 mmHg 92%
03:00 +19°C° 0 mm 2 m/S 721 mmHg 93%
04:00 +19°C° 0 mm 2 m/S 720 mmHg 94%
05:00 +19°C° 0 mm 2 m/S 720 mmHg 92%
06:00 +20°C° 0 mm 2 m/S 720 mmHg 89%
07:00 +20°C° 0 mm 3 m/S 721 mmHg 87%
08:00 +22°C° 0 mm 3 m/S 721 mmHg 81%
09:00 +24°C° 0 mm 3 m/S 721 mmHg 74%
10:00 +26°C° 0 mm 3 m/S 721 mmHg 68%
11:00 +27°C° 0.2 mm 3 m/S 721 mmHg 65%
12:00 +28°C° 0.2 mm 3 m/S 721 mmHg 61%
13:00 +29°C° 0.2 mm 3 m/S 721 mmHg 58%
14:00 +30°C° 0.1 mm 3 m/S 720 mmHg 58%
15:00 +30°C° 0.1 mm 3 m/S 720 mmHg 57%
16:00 +30°C° 0.1 mm 3 m/S 720 mmHg 57%
17:00 +28°C° 0.2 mm 3 m/S 720 mmHg 65%
18:00 +27°C° 0.2 mm 2 m/S 720 mmHg 72%
19:00 +25°C° 0.2 mm 2 m/S 719 mmHg 80%
20:00 +24°C° 0 mm 2 m/S 719 mmHg 83%
21:00 +23°C° 0 mm 2 m/S 720 mmHg 86%
22:00 +21°C° 0 mm 2 m/S 720 mmHg 89%
23:00 +20°C° 0 mm 2 m/S 720 mmHg 90%

13 August, Donnerstag

Zeit Temperatur Niederschläge Wind Luftdruck Luftfeuchtigkeit
00:00 +20°C° 0 mm 2 m/S 720 mmHg 91%
01:00 +20°C° 0 mm 2 m/S 720 mmHg 92%
02:00 +20°C° 0.4 mm 1 m/S 719 mmHg 93%
03:00 +20°C° 0.4 mm 1 m/S 719 mmHg 94%
04:00 +19°C° 0.4 mm 1 m/S 719 mmHg 95%
05:00 +20°C° 0.5 mm 1 m/S 719 mmHg 94%
06:00 +18°C° 0.5 mm 0 m/S 720 mmHg 93%
07:00 +19°C° 0.5 mm 0 m/S 720 mmHg 92%
08:00 +22°C° 0 mm 1 m/S 720 mmHg 87%
09:00 +23°C° 0 mm 1 m/S 720 mmHg 83%
10:00 +25°C° 0 mm 1 m/S 720 mmHg 78%
11:00 +26°C° 0 mm 2 m/S 720 mmHg 72%
12:00 +27°C° 0 mm 2 m/S 720 mmHg 65%
13:00 +29°C° 0 mm 2 m/S 720 mmHg 59%
14:00 +29°C° 0.1 mm 2 m/S 720 mmHg 58%
15:00 +29°C° 0.1 mm 2 m/S 719 mmHg 57%
16:00 +29°C° 0.1 mm 2 m/S 719 mmHg 56%
17:00 +27°C° 2 mm 2 m/S 719 mmHg 66%
18:00 +25°C° 2 mm 2 m/S 719 mmHg 77%
19:00 +23°C° 2 mm 2 m/S 719 mmHg 87%
20:00 +21°C° 2.1 mm 3 m/S 719 mmHg 89%
21:00 +19°C° 2.1 mm 3 m/S 720 mmHg 91%
22:00 +18°C° 2.1 mm 4 m/S 720 mmHg 93%
23:00 +18°C° 0.2 mm 3 m/S 720 mmHg 92%
Mehr zeigen